Date,TemperatureHighF,TemperatureAvgF,TemperatureLowF,DewpointHighF,DewpointAvgF,DewpointLowF,HumidityHigh,HumidityAvg,HumidityLow,PressureMaxIn,PressureMinIn,WindSpeedMaxMPH,WindSpeedAvgMPH,GustSpeedMaxMPH,PrecipitationSumIn
2012-1-1,54.5,47.2,39.6,47.5,41.4,36.3,92,81,60,30.14,29.70,18,4,19,0.06
2012-1-2,49.8,39.4,31.1,45.1,22.9,17.8,85,52,40,29.87,29.70,26,7,31,0.06
2012-1-3,31.8,26.5,17.1,22.6,10.3,-1.5,76,51,37,30.19,29.86,27,7,30,0.00
2012-1-4,28.6,20.8,12.7,16.5,5.0,-1.7,61,51,31,30.30,30.01,19,6,21,0.00
2012-1-5,40.5,32.9,27.0,25.2,23.0,17.2,88,68,50,30.02,29.89,20,4,27,0.00
2012-1-6,56.5,45.0,28.6,33.6,29.9,21.9,83,57,38,29.99,29.76,18,4,20,0.00
2012-1-7,66.0,52.9,43.0,38.5,34.2,30.9,64,50,34,29.99,29.73,20,4,23,0.00
2012-1-8,48.7,42.4,34.5,31.6,26.6,18.9,65,54,45,30.33,29.99,18,4,19,0.00
2012-1-9,44.1,36.1,30.7,28.4,23.2,19.0,72,60,45,30.34,30.01,10,1,10,0.00
2012-1-10,48.9,39.0,31.8,32.4,28.1,24.3,89,66,48,30.02,29.90,22,4,23,0.00
2012-1-11,50.4,40.5,27.7,44.4,32.3,24.1,94,74,50,30.12,29.79,14,2,15,0.21
2012-1-12,51.8,46.6,44.1,51.3,45.7,43.0,100,96,94,29.79,29.40,21,4,25,1.12
2012-1-13,50.5,38.1,29.5,47.7,28.7,13.6,98,70,47,29.88,29.28,30,10,36,0.01
2012-1-14,33.4,30.0,26.1,18.3,17.2,15.4,70,59,50,30.12,29.88,30,6,30,0.00
2012-1-15,26.8,22.6,17.8,18.9,5.0,-2.2,76,48,32,30.61,30.11,24,6,25,0.00
2012-1-16,39.6,28.0,14.7,30.0,15.0,2.1,70,58,41,30.66,30.19,15,4,18,0.00
2012-1-17,55.8,44.7,37.0,49.3,41.2,30.2,95,88,71,30.19,29.57,32,6,32,0.20
2012-1-18,56.1,40.2,26.1,50.2,22.8,10.0,81,50,33,30.20,29.57,34,9,45,0.00
2012-1-19,36.9,30.6,21.6,27.5,19.8,8.4,74,64,52,30.27,29.97,17,3,17,0.00
2012-1-20,36.1,31.7,28.0,26.1,14.2,5.2,69,49,32,30.32,29.97,21,4,21,0.00
2012-1-21,33.6,30.2,28.0,32.4,25.7,11.5,95,85,44,30.31,29.96,14,3,15,0.00
2012-1-22,37.4,29.7,23.5,35.6,26.6,19.0,93,88,82,30.55,30.31,11,3,16,0.13
2012-1-23,55.0,45.8,37.4,53.4,44.8,35.6,98,96,93,30.43,29.90,18,4,22,0.54
2012-1-24,55.9,49.1,41.2,53.1,41.6,32.5,95,76,53,30.16,29.89,18,5,19,0.02
2012-1-25,48.0,41.6,38.7,32.5,29.9,27.0,71,63,51,30.34,30.15,20,3,20,0.00
2012-1-26,45.9,40.0,35.8,45.1,35.9,29.1,97,86,70,30.25,29.82,10,2,12,0.05
2012-1-27,61.2,51.5,43.5,59.4,46.9,32.5,98,85,62,29.88,29.36,38,7,40,0.22
2012-1-28,49.6,43.1,34.9,34.9,30.7,21.4,78,62,42,30.08,29.88,18,4,23,0.00
2012-1-29,46.8,39.2,32.7,23.7,16.5,12.7,54,40,29,30.25,30.06,18,6,23,0.00
2012-1-30,40.6,36.9,33.3,25.7,18.4,13.5,61,47,34,30.35,30.06,23,6,25,0.00
2012-1-31,63.7,49.6,34.2,35.1,30.6,17.1,68,49,31,30.30,30.05,21,5,24,0.00
2012-2-1,64.9,56.0,48.9,45.9,40.5,33.6,78,57,47,30.05,29.89,26,5,27,0.02
2012-2-2,51.8,44.1,37.4,40.5,32.8,23.0,77,64,55,30.26,29.99,20,4,29,0.00
2012-2-3,46.4,37.7,31.8,23.4,21.6,20.3,67,53,37,30.48,30.26,21,4,22,0.00
2012-2-4,45.0,39.0,31.3,27.9,25.6,22.5,70,59,49,30.39,30.12,12,2,12,0.00
2012-2-5,42.8,37.0,30.7,27.5,23.2,19.4,67,57,45,30.21,30.11,12,3,13,0.00
2012-2-6,53.1,39.9,28.6,29.5,25.4,19.2,76,57,36,30.21,30.00,23,5,23,0.00
2012-2-7,52.2,42.1,36.0,31.6,29.1,27.5,77,61,40,30.25,29.99,19,4,21,0.00
2012-2-8,39.6,35.6,32.4,32.0,27.9,20.5,95,74,55,30.33,30.11,8,2,11,0.00
2012-2-9,45.3,35.7,30.0,31.1,26.6,23.0,95,72,42,30.18,30.09,16,4,18,0.06
2012-2-10,51.4,39.3,29.8,37.9,27.1,22.3,88,63,41,30.19,29.94,12,3,12,0.00
2012-2-11,37.6,35.4,32.2,34.7,31.4,23.9,95,86,59,29.94,29.58,14,2,18,0.12
2012-2-12,32.9,27.3,20.7,28.9,13.5,3.6,88,56,42,30.03,29.68,28,8,40,0.00
2012-2-13,43.5,34.2,26.2,22.5,18.4,14.5,67,53,36,30.10,30.00,21,6,26,0.00
2012-2-14,49.1,41.3,34.9,38.5,27.2,15.4,92,59,30,30.14,30.02,13,2,16,0.03
2012-2-15,46.0,42.4,37.0,41.7,38.6,32.0,98,87,70,30.30,30.07,10,2,12,0.04
2012-2-16,45.3,39.6,30.9,42.6,36.4,28.4,96,88,79,30.32,30.04,9,1,12,0.07
2012-2-17,52.2,45.3,37.8,43.5,35.5,23.9,97,72,38,30.04,29.94,18,3,23,0.05
2012-2-18,51.6,42.1,33.3,37.8,27.2,20.8,87,57,33,30.13,29.89,25,3,25,0.01
2012-2-19,45.7,38.7,32.9,31.3,27.2,22.1,81,64,41,30.11,29.95,12,2,14,0.01
2012-2-20,47.8,37.7,28.8,25.9,20.3,15.1,67,51,29,30.36,29.98,20,5,21,0.00
2012-2-21,49.6,39.3,25.5,40.1,29.4,18.0,86,68,43,30.38,29.88,18,4,22,0.00
2012-2-22,62.1,47.9,39.4,43.5,37.9,27.3,95,72,29,29.88,29.49,15,3,20,0.00
2012-2-23,61.2,52.9,46.2,45.9,37.7,26.2,87,60,31,29.77,29.39,25,6,36,0.00
2012-2-24,46.8,43.7,39.6,45.5,40.2,33.8,97,88,62,29.74,29.32,24,6,28,0.25
2012-2-25,44.4,40.6,36.0,34.2,24.3,16.7,68,52,40,30.06,29.47,40,12,43,0.05
2012-2-26,46.2,36.9,30.9,24.4,16.7,12.0,67,44,32,30.47,30.06,23,5,27,0.00
2012-2-27,58.5,45.6,32.5,38.7,32.9,24.6,86,63,34,30.47,30.11,21,6,22,0.00
2012-2-28,54.7,44.8,37.4,35.1,26.8,22.5,77,51,30,30.40,30.14,20,4,25,0.00
2012-2-29,46.6,42.4,35.8,43.7,38.9,31.3,97,88,75,30.40,29.75,18,3,19,0.40
2012-3-1,45.9,42.6,39.4,43.7,40.5,36.1,97,93,84,29.98,29.64,12,3,15,0.32
2012-3-2,44.8,40.7,36.3,43.5,36.3,32.5,95,84,75,30.14,29.79,22,4,22,0.06
2012-3-3,57.7,51.7,44.8,53.6,41.0,23.2,98,72,34,29.79,29.48,23,6,27,0.22
2012-3-4,46.0,41.4,35.8,25.7,22.8,18.9,62,47,36,29.79,29.60,18,5,21,0.00
2012-3-5,45.1,37.4,30.9,25.5,17.7,5.9,70,46,30,30.41,29.79,20,5,24,0.00
2012-3-6,45.0,34.9,26.2,27.7,17.2,7.0,73,49,26,30.67,30.41,22,4,22,0.00
2012-3-7,67.5,50.3,35.2,45.7,34.8,26.4,80,59,27,30.62,30.34,19,6,21,0.00
2012-3-8,72.7,61.0,52.3,52.0,49.2,45.3,81,66,45,30.35,29.86,30,10,35,0.00
2012-3-9,63.9,47.3,38.5,52.7,30.6,19.9,85,54,33,30.29,29.84,29,7,35,0.02
2012-3-10,43.2,36.3,30.2,22.1,15.0,8.6,61,42,31,30.57,30.29,22,4,23,0.00
2012-3-11,62.4,46.7,32.7,34.5,26.8,20.8,67,48,28,30.58,30.36,15,5,20,0.00
2012-3-12,72.7,56.2,42.6,45.7,38.0,32.7,69,52,25,30.38,30.13,12,4,15,0.00
2012-3-13,76.8,63.7,54.1,58.3,53.7,45.7,96,72,47,30.13,29.93,17,4,19,0.14
2012-3-14,73.4,62.9,50.5,56.8,39.6,21.4,86,50,15,30.18,29.99,27,3,27,0.00
2012-3-15,51.1,46.0,44.1,44.6,42.4,34.7,97,88,55,30.34,30.17,16,4,17,0.00
2012-3-16,50.5,46.0,43.7,47.8,44.8,43.0,98,96,89,30.30,30.14,13,2,15,0.01
2012-3-17,61.5,48.9,39.9,52.5,44.7,39.2,100,87,60,30.38,30.20,12,2,12,0.01
2012-3-18,62.8,51.8,44.8,50.4,46.5,43.3,96,83,62,30.39,30.21,10,2,10,0.00
2012-3-19,74.8,60.4,47.7,58.8,51.0,45.1,92,74,40,30.24,30.16,13,3,14,0.00
2012-3-20,68.5,57.9,52.5,57.7,54.5,51.1,99,89,67,30.33,30.23,7,1,9,0.00
2012-3-21,66.0,57.8,54.1,60.1,55.8,53.4,99,93,78,30.36,30.29,9,1,10,0.01
2012-3-22,72.1,62.6,55.9,62.2,57.9,55.6,99,86,66,30.30,30.09,9,2,12,0.01
2012-3-23,74.1,62.4,53.8,60.3,54.0,44.2,96,76,51,30.10,30.03,17,3,21,0.00
2012-3-24,60.4,53.2,48.0,50.2,45.0,40.6,98,75,51,30.09,29.96,16,4,18,0.16
2012-3-25,51.8,47.3,44.2,46.4,44.2,42.1,95,89,80,29.98,29.74,16,4,18,0.28
2012-3-26,54.7,47.5,36.7,46.8,28.2,7.2,94,54,22,30.14,29.71,30,8,38,0.01
2012-3-27,54.7,41.1,31.5,23.4,5.7,-2.2,47,24,11,30.32,30.13,26,5,28,0.00
2012-3-28,70.9,55.2,39.9,51.8,38.0,19.9,71,53,38,30.19,29.54,22,6,23,0.04
2012-3-29,62.6,54.4,44.2,51.4,38.3,28.6,68,55,43,30.03,29.57,26,7,27,0.00
2012-3-30,57.4,46.6,38.8,37.9,29.9,24.8,73,53,33,30.11,29.94,14,4,15,0.00
2012-3-31,47.1,42.9,40.3,43.0,40.5,36.3,96,91,71,30.01,29.85,15,4,18,0.48
2012-4-1,52.5,46.4,41.7,44.8,42.0,39.9,95,85,64,29.92,29.62,12,3,13,0.12
2012-4-2,58.8,49.4,42.1,45.1,31.6,16.7,96,57,22,29.89,29.58,23,6,26,0.26
2012-4-3,66.6,52.9,39.6,23.5,19.4,13.3,50,29,15,29.97,29.77,22,5,26,0.00
2012-4-4,72.0,60.6,51.4,34.0,27.6,16.3,43,29,18,29.78,29.51,23,4,29,0.00
2012-4-5,61.5,49.7,41.9,37.6,29.8,23.7,67,47,30,29.92,29.72,21,4,23,0.00
2012-4-6,60.8,49.4,38.5,28.8,23.5,15.6,62,38,19,30.03,29.88,20,4,22,0.00
2012-4-7,62.4,51.1,39.4,23.4,19.5,12.7,46,30,16,30.10,29.95,25,6,28,0.00
2012-4-8,68.7,56.3,43.0,34.9,22.8,18.3,41,28,16,30.03,29.66,31,6,37,0.00
2012-4-9,64.6,57.0,50.5,32.7,26.2,21.2,44,31,21,29.77,29.65,38,10,44,0.00
2012-4-10,61.2,54.1,46.8,37.6,30.1,24.3,65,41,25,29.81,29.69,22,6,28,0.00
2012-4-11,55.0,47.6,40.3,36.7,31.7,26.6,77,56,35,29.91,29.78,19,4,27,0.00
2012-4-12,60.4,51.8,43.0,41.5,34.7,28.9,76,54,31,30.12,29.90,17,4,22,0.00
2012-4-13,65.1,53.8,43.3,41.4,33.3,28.6,69,47,27,30.22,30.12,15,3,16,0.00
2012-4-14,74.1,61.2,47.8,47.5,35.0,29.5,56,39,21,30.23,30.02,15,4,18,0.00
2012-4-15,80.4,69.1,60.4,57.6,52.2,42.6,65,55,45,30.05,29.95,21,4,22,0.00
2012-4-16,90.9,74.9,62.8,62.6,58.6,55.0,80,59,37,30.04,29.90,15,3,16,0.00
2012-4-17,82.0,73.3,64.6,59.4,44.5,28.8,68,40,15,30.13,29.91,20,4,21,0.00
2012-4-18,65.7,57.3,52.5,43.7,36.2,29.1,72,46,27,30.26,30.13,16,2,16,0.00
2012-4-19,70.5,58.0,50.9,50.5,47.3,43.9,84,69,46,30.14,30.01,11,2,15,0.00
2012-4-20,69.3,57.6,45.9,54.9,49.7,43.7,94,76,51,30.05,29.86,9,2,9,0.00
2012-4-21,76.5,64.5,55.8,60.8,57.5,54.1,96,80,57,29.86,29.67,18,4,23,0.01
2012-4-22,60.8,52.4,49.1,58.1,50.1,46.9,98,92,81,29.78,29.23,24,5,24,1.99
2012-4-23,57.0,51.5,42.3,56.5,47.0,36.1,99,85,68,29.44,29.11,18,5,18,2.08
2012-4-24,62.8,50.2,38.1,45.9,33.7,23.5,89,58,24,29.72,29.44,29,5,29,0.00
2012-4-25,64.9,53.5,38.3,45.9,35.0,26.1,84,52,24,29.91,29.72,14,2,19,0.00
2012-4-26,61.3,52.1,41.4,55.8,47.7,35.1,98,85,67,29.93,29.60,11,2,14,0.01
2012-4-27,58.8,51.8,44.1,57.4,35.2,27.0,98,55,36,30.16,29.59,30,7,30,0.01
2012-4-28,61.2,48.9,36.7,35.6,29.0,24.6,73,48,29,30.28,30.12,17,4,18,0.00
2012-4-29,66.6,54.6,42.4,37.6,25.4,14.0,71,38,14,30.24,30.06,22,4,24,0.00
2012-4-30,61.9,52.7,38.7,46.2,32.1,20.7,76,47,24,30.36,30.21,17,3,17,0.00
2012-5-1,74.7,60.1,53.8,60.4,54.6,45.1,97,83,60,30.21,29.96,15,3,17,0.33
2012-5-2,54.0,51.4,50.2,51.4,49.5,47.7,97,93,87,30.19,30.08,13,3,15,0.45
2012-5-3,60.4,54.9,51.1,55.4,52.7,49.5,98,92,83,30.23,30.07,12,1,16,0.06
2012-5-4,80.4,62.4,53.8,65.5,58.3,53.2,99,88,59,30.11,29.84,15,2,15,0.02
2012-5-5,60.3,56.0,53.8,59.4,55.1,52.5,99,97,92,30.05,29.85,8,2,12,0.46
2012-5-6,65.7,56.5,50.7,54.0,51.3,47.8,95,84,60,30.13,30.03,9,2,11,0.00
2012-5-7,68.4,57.3,47.3,54.9,48.4,44.1,95,74,45,30.16,30.09,14,3,18,0.00
2012-5-8,73.0,62.6,55.6,58.5,54.0,48.4,84,74,54,30.11,29.83,22,6,25,0.01
2012-5-9,68.0,64.4,61.5,65.8,63.0,58.6,98,95,81,29.83,29.56,15,3,16,0.74
2012-5-10,66.7,59.8,50.9,59.9,47.4,35.8,99,67,35,29.86,29.50,22,5,27,0.35
2012-5-11,72.0,59.5,47.3,41.5,37.5,29.8,77,48,22,30.12,29.86,25,4,26,0.00
2012-5-12,81.3,66.4,49.3,49.1,42.6,37.4,70,45,23,30.25,30.12,13,2,14,0.00
2012-5-13,84.0,71.9,60.4,60.8,52.5,46.2,69,52,29,30.20,30.08,20,4,20,0.00
2012-5-14,74.1,67.6,63.1,61.0,58.6,55.4,86,73,57,30.17,30.09,15,4,16,0.00
2012-5-15,70.2,63.3,61.0,67.6,60.8,57.7,99,92,83,30.12,29.93,13,3,15,0.37
2012-5-16,81.1,70.3,60.8,68.9,64.4,59.7,98,83,62,29.95,29.83,11,2,13,0.03
2012-5-17,75.6,65.0,56.5,62.6,45.7,37.4,84,52,27,30.13,29.90,14,3,18,0.00
2012-5-18,72.1,61.4,49.3,54.9,45.9,39.9,89,60,34,30.24,30.12,11,2,14,0.00
2012-5-19,79.7,64.3,51.1,52.3,47.1,41.7,83,57,32,30.18,30.12,12,2,12,0.00
2012-5-20,75.9,63.8,54.3,59.0,50.7,31.1,95,67,21,30.24,30.14,15,3,17,0.00
2012-5-21,61.5,60.0,58.5,61.0,59.5,57.9,100,99,95,30.20,29.97,11,3,13,1.99
2012-5-22,74.8,65.5,60.6,67.1,62.9,60.6,100,92,75,29.97,29.81,13,2,13,0.36
2012-5-23,80.2,70.1,63.3,68.4,64.6,61.9,96,84,63,30.03,29.86,11,2,12,0.00
2012-5-24,69.6,64.9,62.6,66.0,63.7,62.2,99,96,88,30.18,30.03,10,2,13,0.06
2012-5-25,82.8,69.3,62.2,71.2,66.0,61.9,100,90,66,30.19,30.12,13,2,14,0.00
2012-5-26,89.6,76.2,65.5,72.9,68.6,63.9,96,79,54,30.16,30.06,13,2,15,0.00
2012-5-27,85.8,75.7,70.0,69.8,66.1,59.5,93,74,48,30.17,30.00,14,2,16,0.00
2012-5-28,91.9,79.2,71.1,72.1,68.9,66.9,89,72,52,30.00,29.89,10,3,14,0.00
2012-5-29,95.4,82.5,73.0,74.3,70.9,64.2,90,70,45,29.90,29.69,23,4,23,0.00
2012-5-30,79.9,73.9,66.9,70.5,66.5,59.9,93,79,53,29.78,29.70,8,1,8,0.00
2012-5-31,82.9,73.6,64.2,65.8,57.4,50.2,97,62,33,29.92,29.69,16,2,18,0.01
2012-6-1,73.0,65.9,61.3,64.8,58.6,52.5,96,78,62,30.01,29.75,21,5,21,0.24
2012-6-2,76.6,68.5,60.8,67.3,57.5,47.8,99,71,45,29.78,29.65,18,4,23,1.18
2012-6-3,76.8,64.1,57.4,59.7,53.0,49.1,92,69,43,29.78,29.64,38,4,38,0.20
2012-6-4,64.8,58.7,54.5,57.2,53.9,48.9,96,85,63,29.79,29.61,15,3,16,0.75
2012-6-5,68.2,60.3,52.0,53.2,49.1,45.5,87,68,48,29.95,29.79,13,2,15,0.00
2012-6-6,77.4,63.8,52.3,57.9,53.6,49.1,92,71,46,30.01,29.94,11,2,12,0.00
2012-6-7,80.8,65.9,57.6,63.5,57.5,53.2,92,76,44,29.99,29.91,9,2,12,0.09
2012-6-8,84.6,70.9,58.1,60.3,56.1,51.6,92,64,33,29.95,29.83,13,3,20,0.00
2012-6-9,82.8,73.1,65.1,61.5,57.5,53.8,70,59,45,29.98,29.86,13,2,13,0.00
2012-6-10,86.7,75.1,67.1,68.4,64.8,60.8,91,72,48,30.17,29.97,11,2,12,0.01
2012-6-11,77.7,69.7,65.1,65.1,62.8,59.5,94,79,57,30.25,30.14,14,4,18,0.00
2012-6-12,74.8,68.2,65.1,67.6,65.3,62.4,98,91,76,30.17,29.88,15,4,16,0.50
2012-6-13,71.1,66.3,63.9,67.6,65.3,63.0,99,96,88,30.06,29.83,12,4,16,0.04
2012-6-14,73.6,67.3,61.2,64.6,62.4,58.3,98,85,71,30.25,30.06,13,2,14,0.04
2012-6-15,82.2,68.8,56.8,61.3,55.1,46.2,95,66,33,30.30,30.23,12,2,13,0.01
2012-6-16,82.0,68.5,57.7,59.9,56.2,49.3,90,68,33,30.33,30.23,12,2,13,0.00
2012-6-17,73.2,64.9,58.1,58.1,55.8,53.1,85,73,56,30.24,30.10,10,2,12,0.00
2012-6-18,74.5,64.9,55.8,59.0,56.2,51.6,89,74,54,30.16,30.09,11,2,13,0.00
2012-6-19,82.2,70.6,62.4,68.0,63.2,57.9,89,78,62,30.18,30.07,11,2,14,0.00
2012-6-20,97.5,83.1,68.4,74.7,70.1,63.5,90,67,43,30.09,29.92,11,3,13,0.00
2012-6-21,97.9,87.5,77.4,73.9,70.9,67.8,81,60,40,29.94,29.76,15,3,17,0.00
2012-6-22,97.3,80.8,70.7,74.3,70.9,67.5,96,74,45,29.83,29.73,13,2,18,0.29
2012-6-23,87.6,76.7,68.5,70.2,62.2,54.1,97,66,35,29.97,29.80,16,3,22,0.31
2012-6-24,88.2,75.8,63.7,67.3,60.9,57.4,83,62,37,30.02,29.89,12,2,14,0.00
2012-6-25,83.1,70.8,63.0,70.0,64.9,57.9,97,83,48,29.89,29.64,21,2,23,1.14
2012-6-26,74.7,65.7,56.8,57.9,52.0,48.2,84,62,46,29.79,29.70,23,4,26,0.03
2012-6-27,84.6,72.6,61.5,55.8,51.6,47.8,65,49,31,29.84,29.73,23,5,26,0.00
2012-6-28,92.1,78.9,66.0,63.9,58.8,53.2,67,52,34,29.86,29.71,13,4,17,0.00
2012-6-29,96.8,83.4,69.8,75.4,69.8,61.9,94,65,48,29.73,29.61,17,3,22,0.06
2012-6-30,97.3,84.7,73.8,73.2,66.9,57.4,86,58,29,29.78,29.62,15,3,15,0.00
2012-7-1,97.3,84.6,72.1,70.5,67.1,61.3,81,58,38,29.84,29.72,20,3,22,0.00
2012-7-2,89.6,80.8,70.9,62.1,58.8,55.4,68,48,33,29.91,29.83,17,2,17,0.00
2012-7-3,93.2,80.2,69.4,71.2,63.0,57.9,76,57,36,29.96,29.81,14,3,15,0.00
2012-7-4,94.8,82.7,72.0,75.6,70.1,68.2,93,67,46,29.86,29.70,14,3,17,0.11
2012-7-5,96.3,85.6,77.4,74.8,69.2,62.4,83,61,36,29.83,29.70,15,3,16,0.08
2012-7-6,92.7,82.8,71.6,71.1,68.5,65.5,84,64,44,29.91,29.83,11,2,12,0.00
2012-7-7,99.7,84.2,74.8,73.9,70.6,65.1,92,67,34,29.87,29.74,23,3,34,0.09
2012-7-8,93.6,82.6,75.2,73.4,70.6,66.6,92,69,44,29.86,29.78,9,2,12,0.09
2012-7-9,88.0,79.3,72.9,70.7,62.6,59.4,83,58,39,29.96,29.82,11,3,13,0.00
2012-7-10,89.1,77.7,69.3,68.9,64.8,61.0,83,66,44,30.07,29.96,12,2,13,0.00
2012-7-11,87.8,77.7,68.0,70.9,66.2,61.7,89,70,46,30.17,30.06,11,2,13,0.00
2012-7-12,90.0,78.3,68.0,67.8,63.8,57.4,88,64,35,30.20,30.13,14,2,17,0.00
2012-7-13,91.6,79.5,69.3,70.0,65.5,61.3,81,63,45,30.20,30.13,10,2,12,0.00
2012-7-14,83.8,77.9,71.2,68.4,66.1,62.2,82,68,50,30.20,30.13,14,3,15,0.00
2012-7-15,92.5,80.3,72.0,76.5,72.5,66.4,95,78,57,30.15,29.91,15,3,16,0.55
2012-7-16,92.1,80.3,70.2,73.2,70.8,68.5,95,75,50,29.94,29.77,13,3,17,0.55
2012-7-17,98.2,86.1,74.5,70.9,67.4,63.5,79,56,36,29.85,29.73,15,3,19,0.00
2012-7-18,101.8,84.8,73.9,77.0,72.8,69.3,96,70,39,29.87,29.73,32,3,33,0.13
2012-7-19,77.7,74.6,73.0,73.6,68.9,62.4,96,83,64,29.97,29.84,13,2,15,0.14
2012-7-20,73.2,68.4,63.9,68.4,64.4,61.5,95,87,75,30.04,29.91,18,5,22,0.23
2012-7-21,79.9,71.2,64.9,63.7,61.1,56.8,93,72,48,30.12,30.01,12,3,12,0.11
2012-7-22,85.1,73.8,61.9,65.7,62.6,57.9,91,70,49,30.17,30.10,13,2,14,0.00
2012-7-23,93.2,80.0,68.2,76.3,70.0,63.3,90,73,50,30.12,29.80,17,3,17,0.00
2012-7-24,95.2,84.2,74.8,73.6,69.2,62.1,89,64,37,29.81,29.56,19,5,24,0.00
2012-7-25,89.1,77.8,68.4,65.1,57.3,51.6,72,51,31,29.89,29.70,13,3,16,0.00
2012-7-26,95.5,78.5,68.4,75.9,69.2,60.3,95,75,52,29.81,29.61,33,4,39,0.19
2012-7-27,91.8,80.6,71.4,74.5,71.6,69.3,96,76,51,29.84,29.64,18,3,18,0.20
2012-7-28,84.0,77.7,67.5,76.8,73.3,64.9,97,87,71,29.97,29.83,28,2,36,0.62
2012-7-29,82.6,74.0,68.2,70.2,68.7,67.1,99,85,63,30.04,29.88,8,1,10,0.65
2012-7-30,84.4,75.3,68.9,69.1,67.6,65.8,94,78,58,30.12,30.04,11,2,11,0.00
2012-7-31,84.6,75.7,70.5,69.6,67.6,66.0,89,77,56,30.07,29.90,13,2,13,0.00
2012-8-1,88.9,74.8,70.3,73.2,70.1,65.5,94,86,60,29.93,29.83,13,1,14,0.08
2012-8-2,91.6,79.1,68.9,75.4,71.3,67.3,95,78,54,29.91,29.84,11,2,15,0.00
2012-8-3,93.7,82.1,73.9,77.5,73.8,66.7,96,77,50,30.09,29.91,13,3,17,0.00
2012-8-4,93.2,82.0,73.0,77.0,74.5,70.9,95,80,54,30.19,30.08,14,3,15,0.00
2012-8-5,96.3,83.2,72.5,78.4,74.9,70.3,97,78,48,30.18,29.94,24,5,26,0.67
2012-8-6,88.9,79.9,73.2,74.8,69.1,61.9,98,73,42,30.01,29.93,16,3,16,1.03
2012-8-7,86.7,77.3,67.3,68.0,64.6,61.5,84,66,49,30.01,29.95,8,1,9,0.00
2012-8-8,88.5,79.1,71.6,75.0,72.1,68.2,92,80,55,29.98,29.92,9,1,10,0.00
2012-8-9,92.7,80.3,71.6,74.8,72.8,70.0,96,80,50,29.96,29.85,15,3,18,0.00
2012-8-10,84.6,77.4,70.2,76.6,74.1,68.9,98,90,75,29.88,29.74,12,2,16,1.34
2012-8-11,89.6,78.1,73.2,77.5,73.3,70.0,97,86,61,29.91,29.78,16,3,18,0.10
2012-8-12,89.6,78.7,71.8,71.4,67.6,63.3,95,71,45,29.94,29.87,12,2,14,0.00
2012-8-13,88.0,76.5,66.2,64.9,62.4,57.6,84,64,40,30.02,29.93,16,2,18,0.00
2012-8-14,84.2,75.6,68.9,75.0,69.6,63.0,93,82,63,29.96,29.86,13,2,13,0.12
2012-8-15,90.7,76.7,67.3,75.4,70.9,66.0,97,84,52,29.88,29.81,14,2,18,0.43
2012-8-16,86.4,74.8,66.6,67.3,64.3,58.6,97,73,44,29.92,29.85,12,2,14,0.44
2012-8-17,92.5,78.4,67.5,73.0,66.2,58.8,88,68,43,29.90,29.76,13,3,15,0.05
2012-8-18,84.7,72.6,64.9,70.5,64.3,59.7,95,77,49,29.92,29.81,12,2,16,0.23
2012-8-19,77.4,70.4,61.9,61.7,58.3,54.1,86,67,48,29.99,29.91,7,1,8,0.00
2012-8-20,83.7,73.3,66.0,63.7,61.2,58.3,87,67,46,29.94,29.84,9,1,12,0.00
2012-8-21,84.4,73.9,66.2,64.9,62.7,59.7,87,69,46,30.09,29.92,9,1,9,0.00
2012-8-22,87.6,75.8,64.6,68.2,65.2,61.7,93,71,46,30.15,30.08,12,2,12,0.00
2012-8-23,88.5,75.8,64.6,68.4,65.2,61.3,92,72,45,30.17,30.09,10,2,13,0.00
2012-8-24,89.1,76.8,65.8,69.4,66.8,63.0,93,73,47,30.17,30.11,8,1,9,0.00
2012-8-25,84.9,76.0,70.0,72.9,68.7,64.6,89,78,64,30.26,30.17,13,2,15,0.00
2012-8-26,82.6,75.4,70.5,69.4,67.0,63.7,87,76,62,30.31,30.21,13,3,14,0.00
2012-8-27,84.4,75.9,69.1,75.0,71.6,67.5,98,87,71,30.22,29.96,16,2,18,1.56
2012-8-28,88.0,78.5,72.3,73.8,68.4,59.9,96,74,42,29.96,29.80,16,4,17,0.11
2012-8-29,84.4,73.8,65.7,62.4,59.1,53.4,82,62,39,30.01,29.88,14,2,14,0.00
2012-8-30,84.9,72.7,62.2,63.7,59.0,54.3,89,65,39,30.11,30.01,15,2,15,0.00
2012-8-31,92.7,78.6,66.0,71.4,63.9,57.0,94,65,31,30.07,29.89,17,3,17,0.00
2012-9-1,93.7,79.8,74.3,72.1,66.5,57.7,90,66,36,30.04,29.92,14,3,15,0.00
2012-9-2,83.5,76.3,72.1,72.5,71.0,68.9,96,84,67,30.07,30.00,10,2,10,0.17
2012-9-3,78.3,73.9,70.2,72.1,69.6,66.0,96,87,70,30.14,30.05,15,3,17,0.17
2012-9-4,81.9,74.3,70.0,76.1,72.8,68.7,99,95,80,30.07,29.86,13,2,20,1.02
2012-9-5,84.2,76.7,70.0,78.3,74.4,68.5,97,93,76,29.86,29.76,16,3,16,0.62
2012-9-6,80.8,72.9,65.5,72.7,68.8,63.9,96,88,74,29.91,29.82,7,1,8,0.01
2012-9-7,91.9,78.8,69.1,75.4,70.7,64.8,96,78,53,29.93,29.82,12,2,13,0.01
2012-9-8,85.6,75.0,65.1,77.4,71.4,63.5,98,89,71,29.87,29.58,22,4,22,0.39
2012-9-9,80.6,70.0,63.1,64.0,61.1,54.3,96,76,41,29.88,29.77,9,2,13,0.40
2012-9-10,75.4,66.1,59.9,58.6,51.4,45.7,87,61,38,30.13,29.88,19,4,21,0.00
2012-9-11,78.3,63.6,52.0,54.1,48.5,43.0,83,60,32,30.29,30.13,10,1,11,0.00
2012-9-12,82.2,68.2,56.1,57.9,55.1,52.0,87,66,39,30.37,30.29,10,2,11,0.00
2012-9-13,82.2,69.3,57.7,61.5,59.0,54.7,92,72,49,30.38,30.27,10,2,12,0.00
2012-9-14,82.8,69.9,57.7,64.4,61.0,55.0,93,75,48,30.29,30.09,12,2,14,0.00
2012-9-15,73.9,66.9,60.3,61.9,53.8,48.7,90,65,44,30.14,30.06,18,4,21,0.00
2012-9-16,75.7,64.9,56.1,52.9,50.7,48.0,80,62,40,30.14,30.03,12,2,13,0.00
2012-9-17,82.0,66.2,52.3,62.1,52.6,47.7,87,64,36,30.12,30.04,12,2,14,0.00
2012-9-18,77.2,72.8,67.6,72.0,68.4,62.2,97,86,80,30.04,29.67,30,8,43,0.90
2012-9-19,72.0,65.0,56.8,66.9,52.1,44.6,97,65,40,30.17,29.74,17,3,21,0.90
2012-9-20,71.8,62.9,55.2,64.0,56.3,48.4,89,79,68,30.20,30.10,12,2,13,0.03
2012-9-21,75.6,65.3,57.6,61.3,57.8,55.2,94,78,55,30.11,30.00,11,2,11,0.00
2012-9-22,80.6,68.3,54.5,69.1,62.6,51.8,96,83,68,30.01,29.79,17,4,20,0.14
2012-9-23,71.4,63.1,54.9,64.8,50.2,41.0,96,66,36,30.12,29.86,17,4,18,0.14
2012-9-24,69.3,58.1,50.2,48.6,44.9,39.9,85,64,36,30.17,30.10,13,2,15,0.00
2012-9-25,77.0,62.1,48.9,55.9,49.9,42.1,79,66,42,30.22,30.12,17,4,17,0.00
2012-9-26,81.3,71.2,63.3,64.6,60.7,55.8,81,70,54,30.16,30.01,16,4,16,0.00
2012-9-27,77.2,68.2,63.9,65.3,63.3,60.8,95,85,61,30.18,30.04,9,1,9,0.08
2012-9-28,79.3,70.9,65.5,71.6,66.7,63.5,94,87,69,30.15,29.91,13,3,17,0.13
2012-9-29,66.6,62.3,57.0,63.9,57.4,53.8,95,85,69,29.94,29.87,10,2,11,0.07
2012-9-30,71.4,61.0,55.0,55.9,52.7,48.6,94,76,48,29.88,29.78,11,3,14,0.00
2012-10-1,73.6,61.2,49.6,52.5,49.7,46.9,92,68,41,29.98,29.84,17,3,20,0.00
2012-10-2,73.8,67.4,62.1,70.2,62.0,52.2,98,83,63,30.02,29.94,11,1,12,0.12
2012-10-3,73.6,69.2,65.8,71.4,68.3,65.5,99,97,89,30.12,29.97,6,1,6,0.14
2012-10-4,78.1,71.1,66.9,71.6,69.0,65.5,99,93,79,30.14,30.03,7,1,8,0.02
2012-10-5,81.3,69.0,60.6,65.5,61.1,55.2,97,78,47,30.08,29.94,10,2,12,0.03
2012-10-6,81.7,66.8,54.0,63.9,58.0,48.2,90,74,51,30.01,29.75,21,4,21,0.00
2012-10-7,54.0,50.6,47.5,50.4,46.5,42.8,94,86,73,30.13,30.00,11,1,11,0.05
2012-10-8,57.7,50.3,43.2,49.1,45.1,41.5,98,83,64,30.29,30.12,9,1,10,0.05
2012-10-9,59.2,56.9,53.2,58.3,53.3,45.5,97,88,68,30.21,30.05,13,4,13,0.12
2012-10-10,69.4,61.2,55.6,60.1,54.8,42.1,98,81,54,30.05,29.81,16,4,20,1.63
2012-10-11,62.6,52.6,46.6,42.8,38.7,34.7,76,60,37,30.22,29.98,19,4,21,0.00
2012-10-12,58.1,50.2,43.3,44.2,37.7,28.0,90,64,42,30.43,30.09,20,4,23,0.00
2012-10-13,57.4,47.9,35.4,43.3,33.2,24.8,80,58,35,30.54,30.32,11,2,12,0.00
2012-10-14,74.8,61.8,49.8,58.6,51.6,43.2,85,71,45,30.32,29.96,22,5,24,0.00
2012-10-15,76.3,67.3,60.6,63.5,60.8,58.3,94,80,61,29.96,29.62,25,5,28,0.03
2012-10-16,60.8,54.6,45.0,58.3,43.6,37.6,92,68,45,29.93,29.67,24,4,25,0.03
2012-10-17,62.1,51.6,41.4,47.8,42.6,37.8,89,73,48,30.03,29.92,9,1,11,0.00
2012-10-18,68.5,57.2,42.3,62.4,51.4,39.4,93,82,59,30.05,29.92,15,3,17,0.00
2012-10-19,69.1,65.2,63.1,66.4,63.6,59.4,97,94,86,29.93,29.65,18,4,19,0.34
2012-10-20,71.6,62.0,52.7,64.4,53.1,43.0,98,75,45,29.85,29.66,16,3,18,0.01
2012-10-21,66.4,55.8,48.0,45.7,43.2,41.5,80,64,43,30.04,29.85,16,4,19,0.00
2012-10-22,68.7,57.2,48.0,46.2,44.0,41.7,79,63,42,30.13,30.02,19,4,19,0.00
2012-10-23,70.2,58.3,47.7,57.2,49.6,43.5,93,74,50,30.14,30.06,5,0,7,0.01
2012-10-24,62.2,59.6,57.9,58.1,56.6,55.0,95,90,84,30.19,30.08,10,2,10,0.01
2012-10-25,63.7,59.9,56.1,57.4,55.9,53.4,92,87,79,30.26,30.19,9,1,10,0.00
2012-10-26,69.1,62.1,56.7,60.4,58.2,54.3,94,87,73,30.23,30.11,7,1,8,0.00
2012-10-27,66.4,61.7,59.2,59.2,54.9,49.5,92,78,68,30.11,29.88,13,3,13,0.00
2012-10-28,59.5,57.8,55.8,54.3,50.6,42.6,94,78,55,29.90,29.60,24,8,27,0.02
2012-10-29,63.0,56.1,52.9,61.9,53.7,49.6,98,92,81,29.60,28.38,38,13,45,1.14
2012-11-4,49.3,45.7,43.2,34.2,32.9,31.8,67,61,56,30.01,29.97,15,5,44,0.00
2012-11-5,47.1,42.0,35.8,33.3,28.0,23.4,69,58,45,30.19,29.99,15,4,21,0.00
2012-11-6,46.2,40.0,32.5,34.0,26.0,21.9,71,58,43,30.26,30.05,13,3,17,0.00
2012-11-7,44.1,38.1,32.5,36.3,33.6,31.5,97,85,70,30.06,29.80,22,5,23,0.25
2012-11-8,46.8,39.0,32.7,32.5,29.3,24.6,97,71,46,29.95,29.76,20,4,24,0.41
2012-11-9,54.5,45.0,36.7,35.1,29.8,25.7,68,56,36,30.23,29.95,20,5,23,0.00
2012-11-10,56.1,47.2,38.7,41.9,37.2,32.9,91,69,50,30.44,30.22,8,1,9,0.00
2012-11-11,68.2,53.5,39.2,54.9,48.0,37.8,98,83,59,30.51,30.43,11,2,15,0.00
2012-11-12,70.3,59.1,49.6,60.3,55.6,48.7,99,89,65,30.48,30.19,17,4,18,0.01
2012-11-13,62.4,49.4,39.6,60.3,44.5,31.8,96,83,68,30.45,30.12,19,5,25,0.07
2012-11-14,47.8,42.3,37.9,34.3,31.5,27.9,78,66,56,30.53,30.44,15,3,15,0.00
2012-11-15,45.7,40.9,36.9,36.1,33.5,31.3,84,75,63,30.47,30.31,11,2,13,0.00
2012-11-16,49.3,41.8,37.6,34.9,31.7,28.6,82,68,51,30.45,30.30,14,2,14,0.00
2012-11-17,52.9,43.6,36.9,37.2,33.5,28.6,87,68,53,30.64,30.45,12,2,15,0.00
2012-11-18,50.9,45.3,36.7,42.3,38.6,33.1,90,78,65,30.67,30.55,14,4,16,0.00
2012-11-19,49.3,46.4,42.4,43.2,41.0,38.5,87,81,74,30.55,30.25,14,4,16,0.00
2012-11-20,52.5,45.2,38.5,40.6,37.5,27.5,92,76,39,30.25,30.12,10,1,11,0.00
2012-11-21,54.1,45.1,38.3,40.1,37.0,33.3,92,74,49,30.24,30.14,12,1,13,0.00
2012-11-22,55.6,44.3,36.9,46.0,39.1,34.3,93,83,62,30.29,30.14,10,1,11,0.00
2012-11-23,59.4,46.5,35.1,48.0,42.1,32.5,96,85,63,30.14,29.71,10,2,13,0.02
2012-11-24,48.7,41.2,36.1,45.0,27.5,23.2,90,58,44,29.91,29.69,26,8,34,0.03
2012-11-25,42.3,36.6,32.9,25.3,23.5,20.8,69,59,50,30.01,29.90,20,4,24,0.00
2012-11-26,49.8,39.2,32.0,28.2,25.1,22.8,71,58,37,30.27,30.00,17,3,23,0.00
2012-11-27,41.7,39.2,33.6,40.1,35.1,24.8,95,86,68,30.30,30.19,10,2,12,0.46
2012-11-28,43.0,37.6,32.7,36.0,28.9,23.7,92,72,50,30.32,30.18,25,4,25,0.00
2012-11-29,46.2,37.9,32.2,27.5,25.1,22.8,71,60,43,30.41,30.30,17,4,20,0.00
2012-11-30,48.9,41.9,31.6,43.3,34.0,27.0,90,74,50,30.43,30.34,15,3,17,0.00
2012-12-1,47.8,44.6,42.6,43.9,41.4,38.8,93,89,82,30.51,30.42,14,4,16,0.00
2012-12-2,57.4,47.7,40.6,49.5,44.5,39.9,98,89,69,30.42,30.13,13,3,15,0.03
2012-12-3,63.1,53.8,44.8,52.7,48.4,42.8,94,83,62,30.27,30.13,13,2,15,0.03
2012-12-4,68.2,54.9,44.1,56.3,51.2,41.9,97,88,66,30.28,30.00,12,2,14,0.00
2012-12-5,58.6,51.4,35.4,52.7,39.9,20.5,93,66,46,30.26,29.92,21,6,24,0.00
2012-12-6,41.9,34.6,30.0,24.3,21.5,19.6,74,59,43,30.39,30.24,14,2,16,0.00
2012-12-7,47.1,41.0,30.7,45.1,37.1,23.7,95,86,74,30.31,30.03,7,1,9,0.09
2012-12-8,52.3,49.4,46.0,50.5,48.3,44.6,100,96,91,30.03,29.89,11,2,12,0.42
2012-12-9,51.8,47.7,43.5,51.3,46.2,40.8,100,95,88,30.25,29.99,14,3,14,0.25
2012-12-10,63.0,58.0,49.8,62.4,57.4,49.3,99,98,95,29.99,29.56,12,2,15,0.36
2012-12-11,61.0,47.3,42.1,59.5,39.9,32.7,97,76,58,30.20,29.57,19,4,20,0.10
2012-12-12,45.1,40.7,36.9,34.0,29.1,25.0,76,64,47,30.45,30.20,10,1,11,0.00
2012-12-13,47.5,38.9,31.6,33.3,29.1,26.4,84,69,46,30.48,30.34,12,1,12,0.00
2012-12-14,51.4,40.7,31.6,30.7,28.3,26.2,82,63,41,30.34,30.17,15,3,19,0.00
2012-12-15,49.6,42.1,34.3,39.7,33.3,27.9,83,71,58,30.34,30.21,8,1,11,0.00
2012-12-16,53.1,49.3,46.4,50.2,46.5,39.9,100,90,78,30.22,29.90,15,3,17,0.18
2012-12-17,52.2,46.0,43.5,51.8,45.0,42.3,99,97,95,29.91,29.61,11,3,14,0.17
2012-12-18,59.4,51.8,43.0,54.7,46.9,35.2,99,84,62,29.66,29.47,25,6,28,0.31
2012-12-19,49.8,43.3,39.7,35.2,30.8,28.2,75,62,47,30.15,29.65,23,7,31,0.00
2012-12-20,50.4,41.6,32.7,45.5,33.6,26.8,84,73,62,30.25,29.78,16,3,19,0.00
2012-12-21,56.8,46.5,36.7,55.8,39.8,28.0,96,78,62,29.79,29.14,30,10,34,0.55
2012-12-22,41.2,38.2,35.8,31.6,25.8,20.8,85,62,45,29.89,29.39,39,10,39,0.00
2012-12-23,45.1,37.9,33.4,27.1,24.1,19.8,68,58,37,30.02,29.89,18,5,22,0.00
2012-12-24,42.6,36.7,29.7,40.1,27.8,22.3,95,71,53,30.13,29.94,8,1,9,0.16
2012-12-25,42.6,39.3,35.1,40.3,34.3,28.0,97,83,68,30.27,29.91,18,4,19,0.18
2012-12-26,47.5,38.1,31.6,46.8,34.3,26.4,97,86,76,30.30,29.38,33,8,38,1.67
2012-12-27,49.8,39.2,31.1,48.9,34.3,22.3,97,83,66,29.89,29.25,39,10,39,3.09
2012-12-28,39.7,33.9,30.6,27.1,24.6,21.2,80,69,59,30.12,29.89,21,5,24,0.00
2012-12-29,41.0,34.3,30.2,37.2,31.2,24.6,96,88,79,30.07,29.52,17,3,22,0.20
2012-12-30,37.4,33.2,29.5,28.9,20.2,14.7,86,60,46,30.25,29.64,34,10,40,0.00
2012-12-31,41.2,34.6,28.0,29.1,22.3,14.7,71,61,55,30.27,29.94,16,5,21,0.00
2013-1-1,42.1,38.8,29.8,31.6,27.9,16.5,77,65,54,30.06,29.86,19,5,21,0.00